Location: Fort Wayne
(41.1310°N, 85.1290°W)
Time: 22:14:27
(UTC-04:00)

Helios 1B - Visible Passes

Search period start: 22 August 2017 00:00
Search period end: 01 September 2017 00:00
Orbit: 620 x 624 km, 98.2° (Epoch: 22 August)

Date Brightness Start Highest point End Pass type
(mag) Time Alt. Az. Time Alt. Az. Time Alt. Az.
22 Aug 7.3 02:12:18 16° N 02:12:18 16° N 02:13:09 10° N visible
23 Aug 7.4 02:30:29 13° NNW 02:30:29 13° NNW 02:31:02 10° NNW visible
24 Aug 7.6 01:11:28 11° NNE 01:11:28 11° NNE 01:11:41 10° NNE visible
24 Aug 7.5 02:48:41 11° NNW 02:48:41 11° NNW 02:48:47 10° NNW visible
25 Aug 7.6 01:29:40 12° NNE 01:29:40 12° NNE 01:30:09 10° NNE visible
26 Aug 7.6 01:47:51 13° N 01:47:51 13° N 01:48:23 10° N visible
27 Aug 7.6 02:06:03 12° N 02:06:03 12° N 02:06:27 10° N visible
28 Aug 7.7 02:24:15 11° NNW 02:24:15 11° NNW 02:24:24 10° NNW visible
